owner,sensor,date,latitude,longitude,relative_humidity,qcFlag 
SCCF RECON,ioos:station:SCCF:16:1,2019-06-01T04:15:00Z,26.4345,-81.9647,-9999.0,99999999 
SCCF RECON,ioos:station:SCCF:16:1,2019-06-01T05:15:00Z,26.4345,-81.9647,-9999.0,99999999 
SCCF RECON,ioos:station:SCCF:16:1,2019-06-01T06:15:00Z,26.4345,-81.9647,-9999.0,99999999 
SCCF RECON,ioos:station:SCCF:16:1,2019-06-01T07:15:00Z,26.4345,-81.9647,-9999.0,99999999 
SCCF RECON,ioos:station:SCCF:16:1,2019-06-01T08:15:00Z,26.4345,-81.9647,-9999.0,99999999 
SCCF RECON,ioos:station:SCCF:16:1,2019-06-01T09:15:00Z,26.4345,-81.9647,-9999.0,99999999 
SCCF RECON,ioos:station:SCCF:16:1,2019-06-01T10:15:00Z,26.4345,-81.9647,-9999.0,99999999 
SCCF RECON,ioos:station:SCCF:16:1,2019-06-01T11:15:00Z,26.4345,-81.9647,-9999.0,99999999 
SCCF RECON,ioos:station:SCCF:16:1,2019-06-01T12:15:00Z,26.4345,-81.9647,-9999.0,99999999 
SCCF RECON,ioos:station:SCCF:16:1,2019-06-01T13:15:00Z,26.4345,-81.9647,-9999.0,99999999 
SCCF RECON,ioos:station:SCCF:16:1,2019-06-01T14:15:00Z,26.4345,-81.9647,-9999.0,99999999 
SCCF RECON,ioos:station:SCCF:16:1,2019-06-01T15:15:00Z,26.4345,-81.9647,-9999.0,99999999 
SCCF RECON,ioos:station:SCCF:16:1,2019-06-01T16:15:00Z,26.4345,-81.9647,-9999.0,99999999 
SCCF RECON,ioos:station:SCCF:16:1,2019-06-01T17:15:00Z,26.4345,-81.9647,-9999.0,99999999 
SCCF RECON,ioos:station:SCCF:16:1,2019-06-01T18:15:00Z,26.4345,-81.9647,-9999.0,99999999 
SCCF RECON,ioos:station:SCCF:16:1,2019-06-01T19:15:00Z,26.4345,-81.9647,-9999.0,99999999 
SCCF RECON,ioos:station:SCCF:16:1,2019-06-01T20:15:00Z,26.4345,-81.9647,-9999.0,99999999 
SCCF RECON,ioos:station:SCCF:16:1,2019-06-01T21:15:00Z,26.4345,-81.9647,-9999.0,99999999 
SCCF RECON,ioos:station:SCCF:16:1,2019-06-01T22:15:00Z,26.4345,-81.9647,-9999.0,99999999 
SCCF RECON,ioos:station:SCCF:16:1,2019-06-02T04:15:00Z,26.4345,-81.9647,-9999.0,99999999 
SCCF RECON,ioos:station:SCCF:16:1,2019-06-02T05:15:00Z,26.4345,-81.9647,-9999.0,99999999 
SCCF RECON,ioos:station:SCCF:16:1,2019-06-02T06:15:00Z,26.4345,-81.9647,-9999.0,99999999 
SCCF RECON,ioos:station:SCCF:16:1,2019-06-02T07:15:00Z,26.4345,-81.9647,-9999.0,99999999 
SCCF RECON,ioos:station:SCCF:16:1,2019-06-02T08:15:00Z,26.4345,-81.9647,-9999.0,99999999 
SCCF RECON,ioos:station:SCCF:16:1,2019-06-02T09:15:00Z,26.4345,-81.9647,-9999.0,99999999 
SCCF RECON,ioos:station:SCCF:16:1,2019-06-02T10:15:00Z,26.4345,-81.9647,-9999.0,99999999 
SCCF RECON,ioos:station:SCCF:16:1,2019-06-02T11:15:00Z,26.4345,-81.9647,-9999.0,99999999 
SCCF RECON,ioos:station:SCCF:16:1,2019-06-02T12:15:00Z,26.4345,-81.9647,-9999.0,99999999 
SCCF RECON,ioos:station:SCCF:16:1,2019-06-02T13:15:00Z,26.4345,-81.9647,-9999.0,99999999 
SCCF RECON,ioos:station:SCCF:16:1,2019-06-02T14:15:00Z,26.4345,-81.9647,-9999.0,99999999 
SCCF RECON,ioos:station:SCCF:16:1,2019-06-02T15:15:00Z,26.4345,-81.9647,-9999.0,99999999 
SCCF RECON,ioos:station:SCCF:16:1,2019-06-02T16:15:00Z,26.4345,-81.9647,-9999.0,99999999 
SCCF RECON,ioos:station:SCCF:16:1,2019-06-02T17:15:00Z,26.4345,-81.9647,-9999.0,99999999 
SCCF RECON,ioos:station:SCCF:16:1,2019-06-02T18:15:00Z,26.4345,-81.9647,-9999.0,99999999 
SCCF RECON,ioos:station:SCCF:16:1,2019-06-02T19:15:00Z,26.4345,-81.9647,-9999.0,99999999 
SCCF RECON,ioos:station:SCCF:16:1,2019-06-02T20:15:00Z,26.4345,-81.9647,-9999.0,99999999 
SCCF RECON,ioos:station:SCCF:16:1,2019-06-02T21:15:00Z,26.4345,-81.9647,-9999.0,99999999 
SCCF RECON,ioos:station:SCCF:16:1,2019-06-02T22:15:00Z,26.4345,-81.9647,-9999.0,99999999 
SCCF RECON,ioos:station:SCCF:16:1,2019-06-03T04:15:00Z,26.4345,-81.9647,-9999.0,99999999 
SCCF RECON,ioos:station:SCCF:16:1,2019-06-03T05:15:00Z,26.4345,-81.9647,-9999.0,99999999 
SCCF RECON,ioos:station:SCCF:16:1,2019-06-03T06:15:00Z,26.4345,-81.9647,-9999.0,99999999 
SCCF RECON,ioos:station:SCCF:16:1,2019-06-03T07:15:00Z,26.4345,-81.9647,-9999.0,99999999 
SCCF RECON,ioos:station:SCCF:16:1,2019-06-03T08:15:00Z,26.4345,-81.9647,-9999.0,99999999 
SCCF RECON,ioos:station:SCCF:16:1,2019-06-03T09:15:00Z,26.4345,-81.9647,-9999.0,99999999 
SCCF RECON,ioos:station:SCCF:16:1,2019-06-03T10:15:00Z,26.4345,-81.9647,-9999.0,99999999 
SCCF RECON,ioos:station:SCCF:16:1,2019-06-03T11:15:00Z,26.4345,-81.9647,-9999.0,99999999 
SCCF RECON,ioos:station:SCCF:16:1,2019-06-03T12:15:00Z,26.4345,-81.9647,-9999.0,99999999 
SCCF RECON,ioos:station:SCCF:16:1,2019-06-03T13:15:00Z,26.4345,-81.9647,-9999.0,99999999 
SCCF RECON,ioos:station:SCCF:16:1,2019-06-03T14:15:00Z,26.4345,-81.9647,-9999.0,99999999 
SCCF RECON,ioos:station:SCCF:16:1,2019-06-03T15:15:00Z,26.4345,-81.9647,-9999.0,99999999 
SCCF RECON,ioos:station:SCCF:16:1,2019-06-03T16:15:00Z,26.4345,-81.9647,-9999.0,99999999 
SCCF RECON,ioos:station:SCCF:16:1,2019-06-03T17:15:00Z,26.4345,-81.9647,-9999.0,99999999 
SCCF RECON,ioos:station:SCCF:16:1,2019-06-03T18:15:00Z,26.4345,-81.9647,-9999.0,99999999 
SCCF RECON,ioos:station:SCCF:16:1,2019-06-03T19:15:00Z,26.4345,-81.9647,-9999.0,99999999 
SCCF RECON,ioos:station:SCCF:16:1,2019-06-03T20:15:00Z,26.4345,-81.9647,-9999.0,99999999 
SCCF RECON,ioos:station:SCCF:16:1,2019-06-03T21:15:00Z,26.4345,-81.9647,-9999.0,99999999 
SCCF RECON,ioos:station:SCCF:16:1,2019-06-03T22:15:00Z,26.4345,-81.9647,-9999.0,99999999 
SCCF RECON,ioos:station:SCCF:16:1,2019-06-04T04:15:00Z,26.4345,-81.9647,-9999.0,99999999 
SCCF RECON,ioos:station:SCCF:16:1,2019-06-04T05:15:00Z,26.4345,-81.9647,-9999.0,99999999 
SCCF RECON,ioos:station:SCCF:16:1,2019-06-04T06:15:00Z,26.4345,-81.9647,-9999.0,99999999 
SCCF RECON,ioos:station:SCCF:16:1,2019-06-04T07:15:00Z,26.4345,-81.9647,-9999.0,99999999 
SCCF RECON,ioos:station:SCCF:16:1,2019-06-04T08:15:00Z,26.4345,-81.9647,-9999.0,99999999 
SCCF RECON,ioos:station:SCCF:16:1,2019-06-04T09:15:00Z,26.4345,-81.9647,-9999.0,99999999 
SCCF RECON,ioos:station:SCCF:16:1,2019-06-04T10:15:00Z,26.4345,-81.9647,-9999.0,99999999 
SCCF RECON,ioos:station:SCCF:16:1,2019-06-04T11:15:00Z,26.4345,-81.9647,-9999.0,99999999 
SCCF RECON,ioos:station:SCCF:16:1,2019-06-04T12:15:00Z,26.4345,-81.9647,-9999.0,99999999 
SCCF RECON,ioos:station:SCCF:16:1,2019-06-04T13:15:00Z,26.4345,-81.9647,-9999.0,99999999 
SCCF RECON,ioos:station:SCCF:16:1,2019-06-04T14:15:00Z,26.4345,-81.9647,-9999.0,99999999 
SCCF RECON,ioos:station:SCCF:16:1,2019-06-04T15:15:00Z,26.4345,-81.9647,-9999.0,99999999 
SCCF RECON,ioos:station:SCCF:16:1,2019-06-04T16:15:00Z,26.4345,-81.9647,-9999.0,99999999 
SCCF RECON,ioos:station:SCCF:16:1,2019-06-04T17:15:00Z,26.4345,-81.9647,-9999.0,99999999 
SCCF RECON,ioos:station:SCCF:16:1,2019-06-04T18:15:00Z,26.4345,-81.9647,-9999.0,99999999 
SCCF RECON,ioos:station:SCCF:16:1,2019-06-04T19:15:00Z,26.4345,-81.9647,-9999.0,99999999 
SCCF RECON,ioos:station:SCCF:16:1,2019-06-04T20:15:00Z,26.4345,-81.9647,-9999.0,99999999 
SCCF RECON,ioos:station:SCCF:16:1,2019-06-04T21:15:00Z,26.4345,-81.9647,-9999.0,99999999 
SCCF RECON,ioos:station:SCCF:16:1,2019-06-04T22:15:00Z,26.4345,-81.9647,-9999.0,99999999 
SCCF RECON,ioos:station:SCCF:16:1,2019-06-05T04:15:00Z,26.4345,-81.9647,-9999.0,99999999 
SCCF RECON,ioos:station:SCCF:16:1,2019-06-05T05:15:00Z,26.4345,-81.9647,-9999.0,99999999 
SCCF RECON,ioos:station:SCCF:16:1,2019-06-05T06:15:00Z,26.4345,-81.9647,-9999.0,99999999 
SCCF RECON,ioos:station:SCCF:16:1,2019-06-05T07:15:00Z,26.4345,-81.9647,-9999.0,99999999 
SCCF RECON,ioos:station:SCCF:16:1,2019-06-05T08:15:00Z,26.4345,-81.9647,-9999.0,99999999 
SCCF RECON,ioos:station:SCCF:16:1,2019-06-05T09:15:00Z,26.4345,-81.9647,-9999.0,99999999 
SCCF RECON,ioos:station:SCCF:16:1,2019-06-05T10:15:00Z,26.4345,-81.9647,-9999.0,99999999 
SCCF RECON,ioos:station:SCCF:16:1,2019-06-05T11:15:00Z,26.4345,-81.9647,-9999.0,99999999 
SCCF RECON,ioos:station:SCCF:16:1,2019-06-05T12:15:00Z,26.4345,-81.9647,-9999.0,99999999 
SCCF RECON,ioos:station:SCCF:16:1,2019-06-05T13:15:00Z,26.4345,-81.9647,-9999.0,99999999 
SCCF RECON,ioos:station:SCCF:16:1,2019-06-05T14:15:00Z,26.4345,-81.9647,-9999.0,99999999 
SCCF RECON,ioos:station:SCCF:16:1,2019-06-05T15:15:00Z,26.4345,-81.9647,-9999.0,99999999 
SCCF RECON,ioos:station:SCCF:16:1,2019-06-05T16:15:00Z,26.4345,-81.9647,-9999.0,99999999 
SCCF RECON,ioos:station:SCCF:16:1,2019-06-05T17:15:00Z,26.4345,-81.9647,-9999.0,99999999 
SCCF RECON,ioos:station:SCCF:16:1,2019-06-05T18:15:00Z,26.4345,-81.9647,-9999.0,99999999 
SCCF RECON,ioos:station:SCCF:16:1,2019-06-05T19:15:00Z,26.4345,-81.9647,-9999.0,99999999 
SCCF RECON,ioos:station:SCCF:16:1,2019-06-05T20:15:00Z,26.4345,-81.9647,-9999.0,99999999 
SCCF RECON,ioos:station:SCCF:16:1,2019-06-05T21:15:00Z,26.4345,-81.9647,-9999.0,99999999 
SCCF RECON,ioos:station:SCCF:16:1,2019-06-05T22:15:00Z,26.4345,-81.9647,-9999.0,99999999 
SCCF RECON,ioos:station:SCCF:16:1,2019-06-06T04:15:00Z,26.4345,-81.9647,-9999.0,99999999 
SCCF RECON,ioos:station:SCCF:16:1,2019-06-06T05:15:00Z,26.4345,-81.9647,-9999.0,99999999 
SCCF RECON,ioos:station:SCCF:16:1,2019-06-06T06:15:00Z,26.4345,-81.9647,-9999.0,99999999 
SCCF RECON,ioos:station:SCCF:16:1,2019-06-06T07:15:00Z,26.4345,-81.9647,-9999.0,99999999 
SCCF RECON,ioos:station:SCCF:16:1,2019-06-06T08:15:00Z,26.4345,-81.9647,-9999.0,99999999 
SCCF RECON,ioos:station:SCCF:16:1,2019-06-06T09:15:00Z,26.4345,-81.9647,-9999.0,99999999 
SCCF RECON,ioos:station:SCCF:16:1,2019-06-06T10:15:00Z,26.4345,-81.9647,-9999.0,99999999 
SCCF RECON,ioos:station:SCCF:16:1,2019-06-06T11:15:00Z,26.4345,-81.9647,-9999.0,99999999 
SCCF RECON,ioos:station:SCCF:16:1,2019-06-06T12:15:00Z,26.4345,-81.9647,-9999.0,99999999 
SCCF RECON,ioos:station:SCCF:16:1,2019-06-06T13:15:00Z,26.4345,-81.9647,-9999.0,99999999 
SCCF RECON,ioos:station:SCCF:16:1,2019-06-06T14:15:00Z,26.4345,-81.9647,-9999.0,99999999 
SCCF RECON,ioos:station:SCCF:16:1,2019-06-06T16:15:00Z,26.4345,-81.9647,-9999.0,99999999 
SCCF RECON,ioos:station:SCCF:16:1,2019-06-06T17:15:00Z,26.4345,-81.9647,-9999.0,99999999 
SCCF RECON,ioos:station:SCCF:16:1,2019-06-06T18:15:00Z,26.4345,-81.9647,-9999.0,99999999 
SCCF RECON,ioos:station:SCCF:16:1,2019-06-06T19:15:00Z,26.4345,-81.9647,72.1,11111222 
SCCF RECON,ioos:station:SCCF:16:1,2019-06-06T20:15:00Z,26.4345,-81.9647,66.8,11111222 
SCCF RECON,ioos:station:SCCF:16:1,2019-06-06T21:15:00Z,26.4345,-81.9647,72.7,11111222 
SCCF RECON,ioos:station:SCCF:16:1,2019-06-06T22:15:00Z,26.4345,-81.9647,68.8,11111222 
SCCF RECON,ioos:station:SCCF:16:1,2019-06-07T04:15:00Z,26.4345,-81.9647,76.0,11111222 
SCCF RECON,ioos:station:SCCF:16:1,2019-06-07T05:15:00Z,26.4345,-81.9647,75.7,11111222 
SCCF RECON,ioos:station:SCCF:16:1,2019-06-07T06:15:00Z,26.4345,-81.9647,80.0,11111222 
SCCF RECON,ioos:station:SCCF:16:1,2019-06-07T07:15:00Z,26.4345,-81.9647,85.0,11111222 
SCCF RECON,ioos:station:SCCF:16:1,2019-06-07T08:15:00Z,26.4345,-81.9647,81.1,11111222 
SCCF RECON,ioos:station:SCCF:16:1,2019-06-07T09:15:00Z,26.4345,-81.9647,82.5,11111222 
SCCF RECON,ioos:station:SCCF:16:1,2019-06-07T10:15:00Z,26.4345,-81.9647,75.4,11111222 
SCCF RECON,ioos:station:SCCF:16:1,2019-06-07T11:15:00Z,26.4345,-81.9647,88.2,11111222 
SCCF RECON,ioos:station:SCCF:16:1,2019-06-07T12:15:00Z,26.4345,-81.9647,82.7,11111222 
SCCF RECON,ioos:station:SCCF:16:1,2019-06-07T13:15:00Z,26.4345,-81.9647,74.6,11111222 
SCCF RECON,ioos:station:SCCF:16:1,2019-06-07T14:15:00Z,26.4345,-81.9647,80.1,11111222 
SCCF RECON,ioos:station:SCCF:16:1,2019-06-07T15:15:00Z,26.4345,-81.9647,73.0,11111222 
SCCF RECON,ioos:station:SCCF:16:1,2019-06-07T16:15:00Z,26.4345,-81.9647,76.5,11111222 
SCCF RECON,ioos:station:SCCF:16:1,2019-06-07T17:15:00Z,26.4345,-81.9647,72.7,11111222 
SCCF RECON,ioos:station:SCCF:16:1,2019-06-07T18:15:00Z,26.4345,-81.9647,73.7,11111222 
SCCF RECON,ioos:station:SCCF:16:1,2019-06-07T19:15:00Z,26.4345,-81.9647,73.9,11111222 
SCCF RECON,ioos:station:SCCF:16:1,2019-06-07T20:15:00Z,26.4345,-81.9647,74.8,11111222 
SCCF RECON,ioos:station:SCCF:16:1,2019-06-07T21:15:00Z,26.4345,-81.9647,72.7,11111222 
SCCF RECON,ioos:station:SCCF:16:1,2019-06-07T22:15:00Z,26.4345,-81.9647,74.1,11111222 
SCCF RECON,ioos:station:SCCF:16:1,2019-06-08T04:15:00Z,26.4345,-81.9647,74.6,11111222 
SCCF RECON,ioos:station:SCCF:16:1,2019-06-08T05:15:00Z,26.4345,-81.9647,76.2,11111222 
SCCF RECON,ioos:station:SCCF:16:1,2019-06-08T06:15:00Z,26.4345,-81.9647,76.5,11111222 
SCCF RECON,ioos:station:SCCF:16:1,2019-06-08T07:15:00Z,26.4345,-81.9647,72.6,11111222 
SCCF RECON,ioos:station:SCCF:16:1,2019-06-08T08:15:00Z,26.4345,-81.9647,80.0,11111222 
SCCF RECON,ioos:station:SCCF:16:1,2019-06-08T09:15:00Z,26.4345,-81.9647,72.0,11111222 
SCCF RECON,ioos:station:SCCF:16:1,2019-06-08T10:15:00Z,26.4345,-81.9647,76.6,11111222 
SCCF RECON,ioos:station:SCCF:16:1,2019-06-08T11:15:00Z,26.4345,-81.9647,74.9,11111222 
SCCF RECON,ioos:station:SCCF:16:1,2019-06-08T12:15:00Z,26.4345,-81.9647,73.8,11111222 
SCCF RECON,ioos:station:SCCF:16:1,2019-06-08T13:15:00Z,26.4345,-81.9647,73.2,11111222 
SCCF RECON,ioos:station:SCCF:16:1,2019-06-08T14:15:00Z,26.4345,-81.9647,79.9,11111222 
SCCF RECON,ioos:station:SCCF:16:1,2019-06-08T15:15:00Z,26.4345,-81.9647,72.1,11111222 
SCCF RECON,ioos:station:SCCF:16:1,2019-06-08T17:15:00Z,26.4345,-81.9647,76.5,11111222 
SCCF RECON,ioos:station:SCCF:16:1,2019-06-08T18:15:00Z,26.4345,-81.9647,80.0,11111222 
SCCF RECON,ioos:station:SCCF:16:1,2019-06-09T04:15:00Z,26.4345,-81.9647,74.8,11111222 
SCCF RECON,ioos:station:SCCF:16:1,2019-06-09T05:15:00Z,26.4345,-81.9647,78.8,11111222 
SCCF RECON,ioos:station:SCCF:16:1,2019-06-09T06:15:00Z,26.4345,-81.9647,72.9,11111222 
SCCF RECON,ioos:station:SCCF:16:1,2019-06-09T07:15:00Z,26.4345,-81.9647,89.9,11111222 
SCCF RECON,ioos:station:SCCF:16:1,2019-06-09T08:15:00Z,26.4345,-81.9647,87.9,11111222 
SCCF RECON,ioos:station:SCCF:16:1,2019-06-09T09:15:00Z,26.4345,-81.9647,81.7,11111222 
SCCF RECON,ioos:station:SCCF:16:1,2019-06-09T10:15:00Z,26.4345,-81.9647,78.8,11111222 
SCCF RECON,ioos:station:SCCF:16:1,2019-06-09T11:15:00Z,26.4345,-81.9647,78.0,11111222 
SCCF RECON,ioos:station:SCCF:16:1,2019-06-09T12:15:00Z,26.4345,-81.9647,78.6,11111222 
SCCF RECON,ioos:station:SCCF:16:1,2019-06-09T13:15:00Z,26.4345,-81.9647,82.6,11111222 
SCCF RECON,ioos:station:SCCF:16:1,2019-06-09T14:15:00Z,26.4345,-81.9647,82.2,11111222 
SCCF RECON,ioos:station:SCCF:16:1,2019-06-09T15:15:00Z,26.4345,-81.9647,83.7,11111222 
SCCF RECON,ioos:station:SCCF:16:1,2019-06-09T16:15:00Z,26.4345,-81.9647,79.2,11111222 
SCCF RECON,ioos:station:SCCF:16:1,2019-06-09T17:15:00Z,26.4345,-81.9647,75.0,11111222 
SCCF RECON,ioos:station:SCCF:16:1,2019-06-09T18:15:00Z,26.4345,-81.9647,74.7,11111222 
SCCF RECON,ioos:station:SCCF:16:1,2019-06-09T19:15:00Z,26.4345,-81.9647,76.5,11111222 
SCCF RECON,ioos:station:SCCF:16:1,2019-06-09T20:15:00Z,26.4345,-81.9647,74.3,11111222 
SCCF RECON,ioos:station:SCCF:16:1,2019-06-09T21:15:00Z,26.4345,-81.9647,73.4,11111222 
SCCF RECON,ioos:station:SCCF:16:1,2019-06-09T22:15:00Z,26.4345,-81.9647,72.0,11111222 
SCCF RECON,ioos:station:SCCF:16:1,2019-06-10T04:15:00Z,26.4345,-81.9647,86.9,11111222 
SCCF RECON,ioos:station:SCCF:16:1,2019-06-10T05:15:00Z,26.4345,-81.9647,90.7,11111222 
SCCF RECON,ioos:station:SCCF:16:1,2019-06-10T06:15:00Z,26.4345,-81.9647,89.6,11111222 
SCCF RECON,ioos:station:SCCF:16:1,2019-06-10T07:15:00Z,26.4345,-81.9647,89.4,11111222 
SCCF RECON,ioos:station:SCCF:16:1,2019-06-10T08:15:00Z,26.4345,-81.9647,81.7,11111222 
SCCF RECON,ioos:station:SCCF:16:1,2019-06-10T09:15:00Z,26.4345,-81.9647,87.8,11111222 
SCCF RECON,ioos:station:SCCF:16:1,2019-06-10T10:15:00Z,26.4345,-81.9647,87.4,11111222 
SCCF RECON,ioos:station:SCCF:16:1,2019-06-10T11:15:00Z,26.4345,-81.9647,87.2,11111222 
SCCF RECON,ioos:station:SCCF:16:1,2019-06-10T12:15:00Z,26.4345,-81.9647,82.9,11111222 
SCCF RECON,ioos:station:SCCF:16:1,2019-06-10T13:15:00Z,26.4345,-81.9647,79.6,11111222 
SCCF RECON,ioos:station:SCCF:16:1,2019-06-10T14:15:00Z,26.4345,-81.9647,75.4,11111222 
SCCF RECON,ioos:station:SCCF:16:1,2019-06-10T15:15:00Z,26.4345,-81.9647,68.8,11111222 
SCCF RECON,ioos:station:SCCF:16:1,2019-06-10T16:15:00Z,26.4345,-81.9647,64.4,11111222 
SCCF RECON,ioos:station:SCCF:16:1,2019-06-10T17:15:00Z,26.4345,-81.9647,66.1,11111222 
SCCF RECON,ioos:station:SCCF:16:1,2019-06-10T18:15:00Z,26.4345,-81.9647,68.7,11111222 
SCCF RECON,ioos:station:SCCF:16:1,2019-06-10T19:15:00Z,26.4345,-81.9647,69.1,11111222 
SCCF RECON,ioos:station:SCCF:16:1,2019-06-10T20:15:00Z,26.4345,-81.9647,69.8,11111222 
SCCF RECON,ioos:station:SCCF:16:1,2019-06-10T21:15:00Z,26.4345,-81.9647,79.2,11111222 
SCCF RECON,ioos:station:SCCF:16:1,2019-06-10T22:15:00Z,26.4345,-81.9647,74.7,11111222 
SCCF RECON,ioos:station:SCCF:16:1,2019-06-11T04:15:00Z,26.4345,-81.9647,71.4,11111222 
SCCF RECON,ioos:station:SCCF:16:1,2019-06-11T05:15:00Z,26.4345,-81.9647,75.8,11111222 
SCCF RECON,ioos:station:SCCF:16:1,2019-06-11T06:15:00Z,26.4345,-81.9647,74.7,11111222 
SCCF RECON,ioos:station:SCCF:16:1,2019-06-11T07:15:00Z,26.4345,-81.9647,87.6,11111222 
SCCF RECON,ioos:station:SCCF:16:1,2019-06-11T08:15:00Z,26.4345,-81.9647,81.9,11111222 
SCCF RECON,ioos:station:SCCF:16:1,2019-06-11T09:15:00Z,26.4345,-81.9647,76.3,11111222 
SCCF RECON,ioos:station:SCCF:16:1,2019-06-11T10:15:00Z,26.4345,-81.9647,78.6,11111222 
SCCF RECON,ioos:station:SCCF:16:1,2019-06-11T11:15:00Z,26.4345,-81.9647,74.2,11111222 
SCCF RECON,ioos:station:SCCF:16:1,2019-06-11T12:15:00Z,26.4345,-81.9647,74.0,11111222 
SCCF RECON,ioos:station:SCCF:16:1,2019-06-11T13:15:00Z,26.4345,-81.9647,72.9,11111222 
SCCF RECON,ioos:station:SCCF:16:1,2019-06-11T14:15:00Z,26.4345,-81.9647,73.0,11111222 
SCCF RECON,ioos:station:SCCF:16:1,2019-06-11T15:15:00Z,26.4345,-81.9647,72.8,11111222 
SCCF RECON,ioos:station:SCCF:16:1,2019-06-11T16:15:00Z,26.4345,-81.9647,72.6,11111222 
SCCF RECON,ioos:station:SCCF:16:1,2019-06-11T17:15:00Z,26.4345,-81.9647,70.7,11111222 
SCCF RECON,ioos:station:SCCF:16:1,2019-06-11T20:15:00Z,26.4345,-81.9647,70.2,11111222 
SCCF RECON,ioos:station:SCCF:16:1,2019-06-11T21:15:00Z,26.4345,-81.9647,75.9,11111222 
SCCF RECON,ioos:station:SCCF:16:1,2019-06-11T22:15:00Z,26.4345,-81.9647,74.1,11111222 
SCCF RECON,ioos:station:SCCF:16:1,2019-06-12T04:15:00Z,26.4345,-81.9647,75.2,11111222 
SCCF RECON,ioos:station:SCCF:16:1,2019-06-12T05:15:00Z,26.4345,-81.9647,82.3,11111222 
SCCF RECON,ioos:station:SCCF:16:1,2019-06-12T06:15:00Z,26.4345,-81.9647,81.6,11111222 
SCCF RECON,ioos:station:SCCF:16:1,2019-06-12T07:15:00Z,26.4345,-81.9647,78.3,11111222 
SCCF RECON,ioos:station:SCCF:16:1,2019-06-12T08:15:00Z,26.4345,-81.9647,88.5,11111222 
SCCF RECON,ioos:station:SCCF:16:1,2019-06-12T09:15:00Z,26.4345,-81.9647,87.0,11111222 
SCCF RECON,ioos:station:SCCF:16:1,2019-06-12T10:15:00Z,26.4345,-81.9647,83.2,11111222 
SCCF RECON,ioos:station:SCCF:16:1,2019-06-12T11:15:00Z,26.4345,-81.9647,87.1,11111222 
SCCF RECON,ioos:station:SCCF:16:1,2019-06-12T12:15:00Z,26.4345,-81.9647,84.8,11111222 
SCCF RECON,ioos:station:SCCF:16:1,2019-06-12T13:15:00Z,26.4345,-81.9647,84.1,11111222 
SCCF RECON,ioos:station:SCCF:16:1,2019-06-12T14:15:00Z,26.4345,-81.9647,72.7,11111222 
SCCF RECON,ioos:station:SCCF:16:1,2019-06-12T15:15:00Z,26.4345,-81.9647,73.2,11111222 
SCCF RECON,ioos:station:SCCF:16:1,2019-06-12T16:15:00Z,26.4345,-81.9647,72.5,11111222 
SCCF RECON,ioos:station:SCCF:16:1,2019-06-12T17:15:00Z,26.4345,-81.9647,70.9,11111222 
SCCF RECON,ioos:station:SCCF:16:1,2019-06-12T18:15:00Z,26.4345,-81.9647,73.6,11111222 
SCCF RECON,ioos:station:SCCF:16:1,2019-06-12T19:15:00Z,26.4345,-81.9647,73.0,11111222 
SCCF RECON,ioos:station:SCCF:16:1,2019-06-12T20:15:00Z,26.4345,-81.9647,74.8,11111222 
SCCF RECON,ioos:station:SCCF:16:1,2019-06-12T21:15:00Z,26.4345,-81.9647,72.0,11111222 
SCCF RECON,ioos:station:SCCF:16:1,2019-06-12T22:15:00Z,26.4345,-81.9647,70.0,11111222 
SCCF RECON,ioos:station:SCCF:16:1,2019-06-13T04:15:00Z,26.4345,-81.9647,71.5,11111222 
SCCF RECON,ioos:station:SCCF:16:1,2019-06-13T06:15:00Z,26.4345,-81.9647,77.7,11111222 
SCCF RECON,ioos:station:SCCF:16:1,2019-06-13T07:15:00Z,26.4345,-81.9647,74.3,11111222 
SCCF RECON,ioos:station:SCCF:16:1,2019-06-13T08:15:00Z,26.4345,-81.9647,75.0,11111222 
SCCF RECON,ioos:station:SCCF:16:1,2019-06-13T09:15:00Z,26.4345,-81.9647,72.0,11111222 
SCCF RECON,ioos:station:SCCF:16:1,2019-06-13T10:15:00Z,26.4345,-81.9647,71.9,11111222 
SCCF RECON,ioos:station:SCCF:16:1,2019-06-13T11:15:00Z,26.4345,-81.9647,72.5,11111222 
SCCF RECON,ioos:station:SCCF:16:1,2019-06-13T12:15:00Z,26.4345,-81.9647,72.6,11111222 
SCCF RECON,ioos:station:SCCF:16:1,2019-06-13T13:15:00Z,26.4345,-81.9647,75.0,11111222 
SCCF RECON,ioos:station:SCCF:16:1,2019-06-13T14:15:00Z,26.4345,-81.9647,68.0,11111222 
SCCF RECON,ioos:station:SCCF:16:1,2019-06-13T15:15:00Z,26.4345,-81.9647,69.8,11111222 
SCCF RECON,ioos:station:SCCF:16:1,2019-06-13T16:15:00Z,26.4345,-81.9647,70.7,11111222 
SCCF RECON,ioos:station:SCCF:16:1,2019-06-13T17:15:00Z,26.4345,-81.9647,75.7,11111222 
SCCF RECON,ioos:station:SCCF:16:1,2019-06-13T18:15:00Z,26.4345,-81.9647,73.5,11111222 
SCCF RECON,ioos:station:SCCF:16:1,2019-06-13T19:15:00Z,26.4345,-81.9647,73.7,11111222 
SCCF RECON,ioos:station:SCCF:16:1,2019-06-13T20:15:00Z,26.4345,-81.9647,72.7,11111222 
SCCF RECON,ioos:station:SCCF:16:1,2019-06-13T21:15:00Z,26.4345,-81.9647,72.7,11111222 
SCCF RECON,ioos:station:SCCF:16:1,2019-06-13T22:15:00Z,26.4345,-81.9647,71.2,11111222 
SCCF RECON,ioos:station:SCCF:16:1,2019-06-14T04:15:00Z,26.4345,-81.9647,93.4,11111222 
SCCF RECON,ioos:station:SCCF:16:1,2019-06-14T05:15:00Z,26.4345,-81.9647,85.2,11111222 
SCCF RECON,ioos:station:SCCF:16:1,2019-06-14T06:15:00Z,26.4345,-81.9647,79.6,11111222 
SCCF RECON,ioos:station:SCCF:16:1,2019-06-14T07:15:00Z,26.4345,-81.9647,77.2,11111222 
SCCF RECON,ioos:station:SCCF:16:1,2019-06-14T08:15:00Z,26.4345,-81.9647,76.3,11111222 
SCCF RECON,ioos:station:SCCF:16:1,2019-06-14T09:15:00Z,26.4345,-81.9647,83.8,11111222 
SCCF RECON,ioos:station:SCCF:16:1,2019-06-14T10:15:00Z,26.4345,-81.9647,88.6,11111222 
SCCF RECON,ioos:station:SCCF:16:1,2019-06-14T11:15:00Z,26.4345,-81.9647,86.3,11111222 
SCCF RECON,ioos:station:SCCF:16:1,2019-06-14T12:15:00Z,26.4345,-81.9647,86.8,11111222 
SCCF RECON,ioos:station:SCCF:16:1,2019-06-14T13:15:00Z,26.4345,-81.9647,84.2,11111222 
SCCF RECON,ioos:station:SCCF:16:1,2019-06-14T14:15:00Z,26.4345,-81.9647,80.6,11111222 
SCCF RECON,ioos:station:SCCF:16:1,2019-06-14T15:15:00Z,26.4345,-81.9647,71.9,11111222 
SCCF RECON,ioos:station:SCCF:16:1,2019-06-14T16:15:00Z,26.4345,-81.9647,71.6,11111222 
SCCF RECON,ioos:station:SCCF:16:1,2019-06-14T17:15:00Z,26.4345,-81.9647,65.8,11111222 
SCCF RECON,ioos:station:SCCF:16:1,2019-06-14T18:15:00Z,26.4345,-81.9647,72.4,11111222 
SCCF RECON,ioos:station:SCCF:16:1,2019-06-14T19:15:00Z,26.4345,-81.9647,75.7,11111222 
SCCF RECON,ioos:station:SCCF:16:1,2019-06-14T20:15:00Z,26.4345,-81.9647,65.4,11111222 
SCCF RECON,ioos:station:SCCF:16:1,2019-06-14T21:15:00Z,26.4345,-81.9647,62.5,11111222 
SCCF RECON,ioos:station:SCCF:16:1,2019-06-14T22:15:00Z,26.4345,-81.9647,66.1,11111222 
SCCF RECON,ioos:station:SCCF:16:1,2019-06-15T04:15:00Z,26.4345,-81.9647,83.7,11111222 
SCCF RECON,ioos:station:SCCF:16:1,2019-06-15T05:15:00Z,26.4345,-81.9647,83.8,11111222 
SCCF RECON,ioos:station:SCCF:16:1,2019-06-15T06:15:00Z,26.4345,-81.9647,81.6,11111222 
SCCF RECON,ioos:station:SCCF:16:1,2019-06-15T07:15:00Z,26.4345,-81.9647,90.5,11111222 
SCCF RECON,ioos:station:SCCF:16:1,2019-06-15T08:15:00Z,26.4345,-81.9647,89.8,11111222 
SCCF RECON,ioos:station:SCCF:16:1,2019-06-15T09:15:00Z,26.4345,-81.9647,90.9,11111222 
SCCF RECON,ioos:station:SCCF:16:1,2019-06-15T10:15:00Z,26.4345,-81.9647,90.5,11111222 
SCCF RECON,ioos:station:SCCF:16:1,2019-06-15T11:15:00Z,26.4345,-81.9647,91.1,11111222 
SCCF RECON,ioos:station:SCCF:16:1,2019-06-15T12:15:00Z,26.4345,-81.9647,82.8,11111222 
SCCF RECON,ioos:station:SCCF:16:1,2019-06-15T13:15:00Z,26.4345,-81.9647,81.8,11111222 
SCCF RECON,ioos:station:SCCF:16:1,2019-06-15T14:15:00Z,26.4345,-81.9647,77.8,11111222 
SCCF RECON,ioos:station:SCCF:16:1,2019-06-15T15:15:00Z,26.4345,-81.9647,73.2,11111222 
SCCF RECON,ioos:station:SCCF:16:1,2019-06-15T16:15:00Z,26.4345,-81.9647,71.2,11111222 
SCCF RECON,ioos:station:SCCF:16:1,2019-06-15T17:15:00Z,26.4345,-81.9647,73.8,11111222 